Location: Cruquius
(52.3348°N, 4.6319°E)
Time: 12:31:07
(UTC+00:00)

NOSS 3-3 (C) - Pass Details

Date: 03 October 2021
Orbit: 801 x 1411 km, 63.4° (Epoch: 05 October)

Event Time Altitude Azimuth Distance (km) Brightness Sun altitude
Rises 19:33:19 0° 311° (NW) 4,011 8.5 -21.8°
Reaches altitude 10° 19:36:19 10° 301° (WNW) 3,140 7.8 -22.2°
Maximum altitude 19:42:32 28° 246° (WSW) 2,225 6.2 -23.0°
Drops below altitude 10° 19:49:17 10° 193° (SSW) 3,426 6.7 -24.0°
Sets 19:52:44 0° 182° (S) 4,440 7.2 -24.4°
